Regional Weather Roundup
Issued by NWS Albany, NY

Home | Current Version | Previous Version | Text Only | Print | Product List | Glossary On
Versions: 1 2 3 4 5 6 7 8 9 10 11 12 13 14 15 16 17 18 19 20 21 22 23 24 25 26 27 28 29 30 31 32 33 34 35 36 37 38 39 40 41 42 43 44 45 46 47 48 49 50
821
ASUS41 KALY 232110
RWRALY

NEW YORK STATE HOURLY WEATHER ROUNDUP
NATIONAL WEATHER SERVICE ALBANY NY
500 PM EDT MON OCT 23 2017

NOTE: "FAIR" INDICATES FEW OR NO CLOUDS BELOW 12,000 FEET WITH NO
SIGNIFICANT WEATHER AND/OR NO OBSTRUCTIONS TO VISIBILITY.

NYZ032-033-038>043-046>054-057>066-NYZ062>081-082-084-232200-
EAST


CITY           SKY/WX    TMP DP  RH WIND       PRES   REMARKS
ALBANY         CLOUDY    70  58  65 S9        30.10F
GLENS FALLS    CLOUDY    68  58  70 S8        30.10F
POUGHKEEPSIE   CLOUDY    71  59  65 SE13G18   30.12S
NEWBURGH       PTSUNNY   70  63  78 S14       30.14F
MONTGOMERY     CLOUDY    70  60  70 S9        30.11F
WHITE PLAINS   CLOUDY    70  60  70 SE12      30.15F
ISLIP          CLOUDY    68  63  84 SE14      30.16F
NEW YORK CITY  CLOUDY    72  61  68 SE13G20   30.13F
$$

NYZ005>009-017-018-044>046-055-056-232200-
CENTRAL


CITY           SKY/WX    TMP DP  RH WIND       PRES   REMARKS
FULTON         PTSUNNY   71  53  52 S10G18    29.95F
SYRACUSE       CLOUDY    70  54  56 SE12      29.96F
ROME           CLOUDY    68  56  65 SE10      30.03F
ELMIRA         CLOUDY    69  58  67 S9G23     29.97F
BINGHAMTON     CLOUDY    65  56  72 S9        30.03F
MONTICELLO     CLOUDY    65  58  78 SE14      30.12F
$$

NYZ026>034-041>043-087-232200-
NORTH


CITY           SKY/WX    TMP DP  RH WIND       PRES   REMARKS
WATERTOWN      CLOUDY    69  55  60 S12       29.95F
FORT DRUM      NOT AVBL
OGDENSBURG     FAIR      70  55  59 S8        29.97F
MASSENA        CLOUDY    71  54  54 S9        30.00F
SARANAC LAKE   CLOUDY    64  52  64 S15       30.05F
PLATTSBURGH    CLOUDY    68  55  63 S18G25    30.05F
$$

NYZ001>004-010>016-019>021-085-232200-
WEST


CITY           SKY/WX    TMP DP  RH WIND       PRES   REMARKS
NIAGARA FALLS  LGT RAIN  68  56  65 SE10      29.81F
BUFFALO        CLOUDY    67  55  65 SE12      29.82F
DUNKIRK        LGT RAIN  69  55  60 SE7       29.80R
JAMESTOWN      LGT RAIN  61  55  81 S17G26    29.85F
WELLSVILLE     CLOUDY    64  50  60 S28G43    29.93F
ROCHESTER      CLOUDY    70  54  56 S18G28    29.88F
PENN YAN       CLOUDY    68  53  58 S9G23     29.94F
$$

             KEY
       WCI = WIND CHILL INDEX
       VSB = VISIBILITY
       HX  = HEAT INDEX
$$




USA.gov is the U.S. government's official web portal to all federal, state and local government web resources and services.